Location: Newark
(49.8969°N, 3.3422°E)
Time: 19:05:48
(UTC+00:00)

Tiros 1 - Pass Details

Date: 11 May 2021
Orbit: 630 x 664 km, 48.4° (Epoch: 12 June)

Event Time Altitude Azimuth Distance (km) Brightness Sun altitude
Exits shadow 01:53:47 29° 207° (SSW) 1,188 7.9 -16.3°
Maximum altitude 01:55:38 44° 156° (SSE) 909 7.6 -16.1°
Drops below altitude 10° 02:00:08 10° 85° (E) 2,058 10.3 -15.7°
Sets 02:02:33 0° 79° (E) 2,964 11.3 -15.5°
